Location: Laguna de la Cañada del Gallo
(40.3974°N, 5.2096°W)
Time: 13:34:42
(UTC+00:00)

Atlas Centaur 2 - Pass Details

Date: 18 April 2024
Orbit: 458 x 1278 km, 30.4° (Epoch: 26 May)

Event Time Altitude Azimuth Distance (km) Brightness Sun altitude
Rises 21:14:49 0° 246° (WSW) 3,260 5.6 -22.9°
Reaches altitude 10° 21:17:57 10° 233° (SW) 2,169 4.5 -23.4°
Enters shadow 21:20:03 19° 213° (SSW) 1,572 3.5 -23.7°
